Location: Newark
(51.2656°N, 3.9089°E)
Time: 02:41:45
(UTC+00:00)

N. Korean satellite - Visible Passes

Search period start: 21 October 2019 00:00
Search period end: 31 October 2019 00:00
Orbit: 455 x 508 km, 97.2° (Epoch: 20 October)

Date Brightness Start Highest point End Pass type
(mag) Time Alt. Az. Time Alt. Az. Time Alt. Az.
22 Oct 7.7 05:30:21 10° NNE 05:33:53 49° E 05:37:27 10° S visible
22 Oct 9.9 17:45:22 10° SW 17:47:44 17° W 17:50:07 10° NW visible
23 Oct 9.1 05:05:20 10° NE 05:08:28 26° E 05:11:36 10° SSE visible
23 Oct 8.7 17:19:07 10° SSW 17:22:14 31° W 17:25:24 10° NNW visible
24 Oct 10.1 04:40:47 10° NE 04:42:57 15° E 04:45:08 10° SE visible
25 Oct 6.8 05:47:42 10° NNE 05:51:22 80° ESE 05:55:03 10° S visible
25 Oct 10.3 18:04:09 10° WSW 18:05:21 11° W 18:06:33 10° WNW visible
26 Oct 8.2 05:22:31 10° NNE 05:26:00 41° E 05:29:31 10° S visible
26 Oct 9.5 17:37:05 10° SW 17:39:46 21° W 17:42:30 10° NW visible
27 Oct 9.4 04:57:36 10° NE 05:00:33 22° E 05:03:31 10° SSE visible
27 Oct 8.2 17:11:01 10° SSW 17:14:17 39° W 17:17:37 10° NNW visible
28 Oct 10.3 04:33:17 10° ENE 04:34:59 13° E 04:36:43 10° ESE visible
29 Oct 7.1 05:39:49 10° NNE 05:43:29 65° E 05:47:10 10° S visible
29 Oct 10.1 17:55:27 10° WSW 17:57:20 14° W 17:59:16 10° NW visible
30 Oct 8.6 05:14:40 10° NNE 05:18:05 34° E 05:21:29 10° SSE visible
30 Oct 9.1 17:28:51 10° SSW 17:31:47 25° W 17:34:47 10° NW visible
